Regional Weather Roundup
Issued by NWS

Home | Current Version | Previous Version | Text Only | Print | Product List | Glossary Off
Versions: 1 2 3 4 5 6 7 8 9 10 11 12 13 14 15 16 17 18 19 20 21 22 23 24 25 26 27 28 29 30 31 32 33 34 35 36 37 38 39 40 41 42 43 44 45 46 47 48 49 50

290
ASUS44 KJAN 171610
RWRMS

MISSISSIPPI HOURLY WEATHER ROUNDUP
NATIONAL WEATHER SERVICE JACKSON MS
1100 AM CDT WED SEP 17 2014

NOTE: "FAIR: INDICATES FEW OR NO CLOUDS BELOW 12,000 FEET WITH NO
SIGNIFICANT WEATHER AND/OR OBSTRUCTIONS TO VISIBILITY.

MSZ001>002-007>008-010>013-018>021-025>028-034>036-171700-
NORTHWEST MISSISSIPPI

CITY           SKY/WX    TMP DP  RH WIND       PRES   REMARKS
CLARKSDALE     FAIR      77  64  65 E5        30.02S
CLEVELAND      FAIR      80  69  67 E5        30.00S
GREENWOOD      SUNNY     80  67  64 CALM      30.00R
GREENVILLE     SUNNY     83  66  56 VRB6      29.99S
GRENADA        FAIR      77  64  65 E6        30.02S
OLIVE BRANCH   CLOUDY    68  63  83 NE7       30.04S
OXFORD         FAIR      73  61  64 SE5       30.04F
TUNICA         CLOUDY    72  63  73 SE3       30.03S
$$

MSZ003>006-009-014>017-022>024-029>033-037>039-171700-
NORTHEAST MISSISSIPPI

CITY           SKY/WX    TMP DP  RH WIND       PRES   REMARKS
COLUMBUS AFB   SUNNY     78  65  65 VRB3      30.01S
CORINTH        FAIR      73  55  53 N7        30.02F
STARKVILLE     FAIR      73  64  73 CALM      30.01S
TUPELO         MOSUNNY   75  60  59 VRB3      30.02S
$$

MSZ040-058-171700-
CENTRAL MISSISSIPPI

CITY           SKY/WX    TMP DP  RH WIND       PRES   REMARKS
JACKSON INTL   MOSUNNY   84  70  62 E7        29.99S
JACKSON HAWKNS SUNNY     84  71  65 VRB3      30.00S
MERIDIAN KEY   SUNNY     84  68  58 NE8       29.99F
MERIDIAN NAS   MOSUNNY   80  69  69 NW3       30.00F
RAYMOND        FAIR      84  79  84 E7        30.00R HX  96
VICKSBURG      SUNNY     85  69  58 E5        29.99S
$$

MSZ059>079-171700-
SOUTH MISSISSIPPI

CITY           SKY/WX    TMP DP  RH WIND       PRES   REMARKS
BROOKHAVEN     FAIR      84  72  65 N5        30.01S
HATTIESBURG    SUNNY     85  70  60 VRB3      29.99S
MCCOMB         MOSUNNY   81  72  74 CALM      30.00S
NATCHEZ        SUNNY     82  72  69 CALM      30.00S
PINE BELT      SUNNY     84  70  61 NE6       30.01R
$$

MSZ080>082-171700-
COASTAL MISSISSIPPI

CITY           SKY/WX    TMP DP  RH WIND       PRES   REMARKS
BAY ST LOUIS   MOSUNNY   81  70  69 VRB3      29.98F
BILOXI         PTSUNNY   81  73  78 N2        29.97F
PASCAGOULA     MOSUNNY   84  73  69 VRB3      29.97S HX  90
GULFPORT       PTSUNNY   82  73  74 N5        29.97S
$$



USA.gov is the U.S. government's official web portal to all federal, state and local government web resources and services.